This is the latest recevied weather packets stored in our database for station/object CE2LOH-10. If no packets are shown the sender has not sent any weather packets the latest 1 day(s).
| Time | Temp. | Humidity | Pressure | Rain* | Wind** | Luminosity | Snow |
|---|---|---|---|---|---|---|---|
| 1777896519 | 12.22° C | 35% | 994.6 hPa | - | - | - | - |
| 1777895619 | 12.22° C | 36% | 994.4 hPa | - | - | - | - |
| 1777894719 | 12.22° C | 35% | 994.4 hPa | - | - | - | - |
| 1777893819 | 12.78° C | 35% | 994.3 hPa | - | - | - | - |
| 1777892919 | 12.78° C | 34% | 994.1 hPa | - | - | - | - |
| 1777892019 | 12.78° C | 34% | 994 hPa | - | - | - | - |
| 1777891118 | 12.78° C | 34% | 994 hPa | - | - | - | - |
| 1777890218 | 12.78° C | 34% | 994.1 hPa | - | - | - | - |
| 1777889318 | 12.78° C | 34% | 994 hPa | - | - | - | - |
| 1777888418 | 13.33° C | 34% | 993.8 hPa | - | - | - | - |
| 1777887518 | 13.33° C | 33% | 993.9 hPa | - | - | - | - |
| 1777886618 | 13.89° C | 35% | 994 hPa | - | - | - | - |
| 1777884818 | 13.33° C | 33% | 993.8 hPa | - | - | - | - |
| 1777883917 | 13.89° C | 33% | 993.5 hPa | - | - | - | - |
| 1777883017 | 13.89° C | 33% | 993.5 hPa | - | - | - | - |
| 1777882117 | 13.89° C | 32% | 993.4 hPa | - | - | - | - |
| 1777881217 | 13.89° C | 32% | 993.7 hPa | - | - | - | - |
| 1777880317 | 14.44° C | 32% | 994 hPa | - | - | - | - |
| 1777879416 | 14.44° C | 32% | 994.2 hPa | - | - | - | - |
| 1777878516 | 14.44° C | 32% | 994.2 hPa | - | - | - | - |
| 1777877616 | 14.44° C | 32% | 994.3 hPa | - | - | - | - |
| 1777876715 | 14.44° C | 32% | 994.2 hPa | - | - | - | - |
| 1777875815 | 15° C | 32% | 994.4 hPa | - | - | - | - |
| 1777874915 | 15° C | 31% | 994.5 hPa | - | - | - | - |
| 1777874015 | 15° C | 31% | 994.7 hPa | - | - | - | - |
* Rain since midnight (hover to see other rain measurements)
** Current wind speed in m/s (hover to see current wind gust speed)